TimeEST,TemperatureF,Dew PointF,Humidity,Sea Level PressureIn,VisibilityMPH,Wind Direction,Wind SpeedMPH,Gust SpeedMPH,PrecipitationIn,Events,Conditions,WindDirDegrees,DateUTC
12:53 AM,14.0,9.0,80,30.18,10.0,Calm,Calm,-,N/A,,Clear,0,2013-02-19 05:53:00
1:53 AM,14.0,8.1,77,30.18,10.0,Calm,Calm,-,N/A,,Mostly Cloudy,0,2013-02-19 06:53:00
2:53 AM,17.1,12.0,81,30.17,10.0,Calm,Calm,-,N/A,,Overcast,0,2013-02-19 07:53:00
3:53 AM,16.0,8.1,71,30.14,10.0,Calm,Calm,-,N/A,,Clear,0,2013-02-19 08:53:00
4:53 AM,14.0,9.0,80,30.11,10.0,Calm,Calm,-,N/A,,Clear,0,2013-02-19 09:53:00
5:53 AM,12.0,8.1,84,30.09,10.0,Calm,Calm,-,N/A,,Clear,0,2013-02-19 10:53:00
6:53 AM,10.9,8.1,88,30.07,10.0,Calm,Calm,-,N/A,,Clear,0,2013-02-19 11:53:00
7:53 AM,18.0,9.0,68,30.04,10.0,Calm,Calm,-,N/A,,Partly Cloudy,0,2013-02-19 12:53:00
8:53 AM,21.0,8.1,57,30.02,10.0,Calm,Calm,-,N/A,,Clear,0,2013-02-19 13:53:00
9:53 AM,25.0,10.0,53,29.98,10.0,Calm,Calm,-,N/A,,Clear,0,2013-02-19 14:53:00
10:53 AM,28.9,10.0,45,29.93,10.0,ENE,3.5,-,N/A,,Partly Cloudy,60,2013-02-19 15:53:00
11:53 AM,33.1,12.0,42,29.88,10.0,WSW,3.5,-,N/A,,Clear,240,2013-02-19 16:53:00
1:53 PM,35.1,15.1,44,29.78,10.0,South,6.9,-,N/A,,Mostly Cloudy,190,2013-02-19 18:53:00
2:53 PM,37.9,19.0,47,29.76,10.0,South,6.9,-,N/A,,Overcast,190,2013-02-19 19:53:00
3:31 PM,37.4,28.4,70,29.73,10.0,South,11.5,31.1,0.00,Rain,Light Rain,190,2013-02-19 20:31:00
3:53 PM,36.0,30.0,79,29.76,6.0,South,12.7,20.7,0.00,,Overcast,190,2013-02-19 20:53:00
4:13 PM,33.8,30.2,87,29.72,2.5,South,4.6,-,0.01,Snow,Light Snow,190,2013-02-19 21:13:00
4:21 PM,33.8,30.2,87,29.72,1.5,South,3.5,-,0.01,Snow,Light Snow,190,2013-02-19 21:21:00
4:53 PM,33.1,30.9,92,29.74,1.5,Calm,Calm,-,0.03,Snow,Light Snow,0,2013-02-19 21:53:00
5:08 PM,32.0,30.2,93,29.69,2.5,Calm,Calm,-,0.00,,Overcast,0,2013-02-19 22:08:00
5:15 PM,32.0,30.2,93,29.70,3.0,Calm,Calm,-,0.00,,Overcast,0,2013-02-19 22:15:00
5:18 PM,32.0,30.2,93,29.69,2.5,Calm,Calm,-,0.00,Snow,Light Snow,0,2013-02-19 22:18:00
5:30 PM,32.0,30.2,93,29.69,1.5,Calm,Calm,-,0.00,Snow,Light Snow,0,2013-02-19 22:30:00
5:53 PM,32.0,30.9,96,29.72,1.0,Calm,Calm,-,0.01,Snow,Light Snow,0,2013-02-19 22:53:00
6:28 PM,32.0,30.2,93,29.68,0.8,Calm,Calm,-,0.02,Snow,Light Snow,0,2013-02-19 23:28:00
7:46 PM,32.0,30.2,93,29.65,0.5,Calm,Calm,-,0.06,Fog-Snow,Snow,0,2013-02-20 00:46:00
7:53 PM,32.0,30.9,96,29.68,0.5,Calm,Calm,-,0.07,Fog-Snow,Snow,0,2013-02-20 00:53:00
8:24 PM,32.0,30.2,93,29.64,0.5,Calm,Calm,-,0.02,Fog-Snow,Snow,0,2013-02-20 01:24:00
8:53 PM,32.0,30.9,96,29.66,0.8,Calm,Calm,-,0.05,Snow,Light Snow,0,2013-02-20 01:53:00
9:27 PM,32.0,30.2,93,29.62,1.0,Calm,Calm,-,0.02,Snow,Light Snow,0,2013-02-20 02:27:00
9:53 PM,32.0,30.9,96,29.65,2.0,Calm,Calm,-,0.02,,Overcast,0,2013-02-20 02:53:00
10:00 PM,32.0,30.2,93,29.62,2.5,Calm,Calm,-,N/A,,Overcast,0,2013-02-20 03:00:00
10:26 PM,32.0,30.2,93,29.62,3.0,South,4.6,-,N/A,,Overcast,180,2013-02-20 03:26:00
10:53 PM,32.0,30.9,96,29.64,3.0,SW,3.5,-,N/A,,Overcast,230,2013-02-20 03:53:00
11:06 PM,32.0,30.2,93,29.62,2.5,Calm,Calm,-,N/A,,Overcast,0,2013-02-20 04:06:00
11:14 PM,32.0,30.2,93,29.62,3.0,Calm,Calm,-,N/A,,Overcast,0,2013-02-20 04:14:00
11:29 PM,32.0,30.2,93,29.62,3.0,Calm,Calm,-,N/A,,Overcast,0,2013-02-20 04:29:00
11:53 PM,32.0,30.0,92,29.65,7.0,West,5.8,-,N/A,,Overcast,270,2013-02-20 04:53:00